{"data":{"norad_id":58231,"epoch":"2026-05-25T05:27:27.571680Z","epoch_age_seconds":62251,"freshness":"FRESH","line1":"1 58231U 23171B   26145.22740245  .00000749  00000+0  36770-4 0  9993","line2":"2 58231  43.0044 212.6784 0001484 272.7861  87.2820 15.27570070141441","mean_motion":15.2757007,"eccentricity":0.0001484,"inclination_deg":43.0044,"raan_deg":212.6784,"arg_perigee_deg":272.7861,"mean_anomaly_deg":87.282,"bstar":3.677e-5,"rev_number":14144,"period_min":94.26736149655,"perigee_km":482.06062576382,"apogee_km":484.09703462222,"semimajor_km":6861.215830193,"source":"CELESTRAK","updated_at":"2026-05-25T13:38:18.579299Z"}}